EW9423 Weather Reports


time (UTC)temp
C
wind
direction
speed
KPH
gust
KPH
rain 1hr
cm
rain 24hr
cm
rain mn
cm
humidity
%
barometer
mb
20260505174015 10 323 1.6 6.4 0.00 0.00 0.00 49 1013.1
20260505173036 10 259 1.6 6.4 0.00 0.00 0.00 51 1013.2
20260505172017 10 277 1.6 9.7 0.00 0.00 0.00 56 1013.3
20260505171037 10 314 4.8 9.7 0.00 0.00 0.00 57 1013.3
20260505170017 10 308 3.2 8.0 0.00 0.00 0.00 53 1013.3
20260505165017 10 303 3.2 12.9 0.00 0.00 0.00 51 1013.2
20260505164017 10 318 3.2 9.7 0.00 0.00 0.00 53 1013.3
20260505163017 10 322 3.2 8.0 0.00 0.00 0.00 51 1013.2
20260505162016 10 313 3.2 8.0 0.00 0.00 0.00 50 1013.2
20260505161017 10 314 3.2 14.5 0.00 0.00 0.00 49 1013.2
20260505153017 12 321 6.4 16.1 0.00 0.00 0.00 37 1013.1
20260505152017 12 322 8.0 17.7 0.00 0.00 0.00 37 1013.0
20260505151057 12 321 6.4 16.1 0.00 0.00 0.00 36 1013.0
20260505125017 13 311 3.2 9.7 0.00 0.00 0.00 34 1013.1
20260505124016 13 324 3.2 12.9 0.00 0.00 0.00 36 1013.1
20260505123016 13 324 4.8 16.1 0.00 0.00 0.00 37 1013.0
20260505122016 13 318 4.8 14.5 0.00 0.00 0.00 38 1013.1
20260505121017 13 322 3.2 16.1 0.00 0.00 0.00 40 1013.1
20260505120016 13 325 6.4 19.3 0.00 0.00 0.00 39 1013.1
20260505115017 13 312 4.8 14.5 0.00 0.00 0.00 42 1013.1
20260505114017 13 323 4.8 14.5 0.00 0.00 0.00 44 1013.1
20260505113016 13 313 6.4 20.9 0.00 0.00 0.00 44 1013.2
20260505112017 13 307 4.8 12.9 0.00 0.00 0.00 45 1013.1
20260505111036 13 300 4.8 17.7 0.00 0.00 0.00 42 1013.1
20260505102017 13 324 4.8 12.9 0.00 0.00 0.00 36 1012.9
20260505101037 13 306 3.2 12.9 0.00 0.00 0.00 33 1012.9
20260505100016 13 325 0.0 8.0 0.00 0.00 0.00 43 1012.9
20260505095037 13 255 3.2 11.3 0.00 0.00 0.00 42 1012.8
20260505094016 13 294 1.6 6.4 0.00 0.00 0.00 45 1012.8
20260505093016 13 253 3.2 8.0 0.00 0.00 0.00 46 1012.9
20260505092036 12 234 3.2 9.7 0.00 0.00 0.00 47 1012.9
20260505091016 12 318 3.2 12.9 0.00 0.00 0.00 49 1013.0
20260505090016 12 327 3.2 8.0 0.00 0.00 0.00 49 1013.0
20260505085016 11 314 3.2 9.7 0.00 0.00 0.00 51 1013.0
20260505084037 11 313 4.8 12.9 0.00 0.00 0.00 52 1013.0
20260505083016 11 325 3.2 12.9 0.00 0.00 0.00 53 1013.1
20260505082016 11 308 6.4 11.3 0.00 0.00 0.00 52 1013.0
20260505081017 11 335 1.6 8.0 0.00 0.00 0.00 55 1012.9
20260505080016 11 327 6.4 16.1 0.00 0.00 0.00 54 1012.8
20260505075036 11 319 3.2 12.9 0.00 0.00 0.00 54 1012.7
20260505074016 10 321 3.2 8.0 0.00 0.00 0.00 55 1012.7
20260505073016 10 321 4.8 12.9 0.00 0.00 0.00 56 1012.7
20260505072016 10 326 6.4 17.7 0.00 0.00 0.00 57 1012.8
20260505071016 10 317 3.2 14.5 0.00 0.00 0.00 58 1012.8
20260505070036 10 323 6.4 14.5 0.00 0.00 0.00 58 1012.8
20260505065016 10 322 4.8 12.9 0.00 0.00 0.00 60 1012.8
20260505064016 9 330 4.8 14.5 0.00 0.00 0.00 61 1012.8
20260505063016 8 320 4.8 14.5 0.00 0.00 0.00 63 1012.8
20260505062016 8 319 4.8 14.5 0.00 0.00 0.00 63 1012.8
20260505061036 8 318 4.8 12.9 0.00 0.00 0.00 65 1012.7
20260505060016 8 319 6.4 14.5 0.00 0.00 0.00 67 1012.7
20260505055016 8 319 4.8 11.3 0.00 0.00 0.00 69 1012.6
20260505054036 8 319 4.8 12.9 0.00 0.00 0.00 72 1012.6
20260505053016 7 307 3.2 11.3 0.00 0.00 0.00 77 1012.5
20260505052016 7 300 1.6 12.9 0.00 0.00 0.00 79 1012.5
20260505051016 6 315 4.8 14.5 0.00 0.00 0.00 82 1012.4
20260505041016 6 292 3.2 11.3 0.00 0.00 0.00 86 1012.0
20260505040016 6 292 3.2 11.3 0.00 0.00 0.00 85 1012.0
20260505035016 6 298 1.6 12.9 0.00 0.00 0.00 85 1011.9
20260505034016 6 285 3.2 11.3 0.00 0.00 0.00 85 1011.9
20260505033016 6 289 3.2 9.7 0.00 0.00 0.00 84 1011.9
20260505032016 6 285 3.2 11.3 0.00 0.00 0.00 84 1011.9
20260505031036 6 272 3.2 9.7 0.00 0.00 0.00 85 1011.8
20260505030036 6 263 1.6 8.0 0.00 0.00 0.00 86 1011.7
20260505025016 7 257 4.8 11.3 0.00 0.00 0.00 86 1011.7
20260505024016 7 259 3.2 12.9 0.00 0.00 0.00 86 1011.7
20260505023016 7 261 6.4 14.5 0.00 0.00 0.00 85 1011.8
20260505022016 7 268 4.8 12.9 0.00 0.00 0.00 86 1011.9
20260505021015 7 265 4.8 14.5 0.00 0.00 0.00 86 1012.0
20260505020016 7 271 3.2 12.9 0.00 0.00 0.00 87 1012.0
20260505015016 7 254 3.2 9.7 0.00 0.00 0.00 86 1012.0
20260505014015 7 258 4.8 12.9 0.00 0.03 0.00 87 1012.0
20260505013016 7 251 3.2 12.9 0.00 0.03 0.00 87 1011.9
20260505012015 6 252 4.8 17.7 0.00 0.05 0.00 87 1012.1
20260505011016 6 246 0.0 8.0 0.00 0.05 0.00 87 1012.2
20260505010015 6 249 3.2 12.9 0.00 0.05 0.00 86 1012.1
20260505005015 6 245 3.2 8.0 0.00 0.05 0.00 85 1012.1
20260505004016 7 249 3.2 11.3 0.00 0.08 0.00 84 1012.2
20260505003016 7 255 4.8 12.9 0.00 0.08 0.00 84 1012.2
20260505002015 7 254 6.4 16.1 0.00 0.10 0.00 84 1012.2
20260505001015 7 256 8.0 14.5 0.00 0.10 0.00 84 1012.2
20260505000015 7 257 6.4 16.1 0.00 0.10 0.00 83 1012.2
20260504235016 7 264 4.8 19.3 0.00 0.13 0.00 83 1012.2
20260504234016 7 256 8.0 17.7 0.00 0.13 0.00 82 1012.2
20260504233016 8 259 8.0 20.9 0.00 0.13 0.00 83 1012.1
20260504232016 8 265 6.4 16.1 0.00 0.13 0.00 83 1012.2
20260504231018 8 260 6.4 17.7 0.00 0.13 0.00 82 1012.3
20260504230018 8 256 8.0 17.7 0.00 0.13 0.00 83 1012.3
20260504225038 7 259 6.4 17.7 0.00 0.13 0.00 82 1012.3
20260504224018 7 258 6.4 20.9 0.00 0.13 0.00 82 1012.4
20260504223038 7 265 8.0 20.9 0.00 0.15 0.00 82 1012.3
20260504222018 7 254 8.0 16.1 0.00 0.15 0.00 83 1012.4
20260504221018 7 274 4.8 14.5 0.00 0.15 0.00 82 1012.4
20260504220018 7 252 9.7 19.3 0.00 0.18 0.00 81 1012.5
20260504215018 7 259 6.4 17.7 0.00 0.20 0.20 82 1012.5
20260504214018 8 260 4.8 14.5 0.00 0.23 0.20 81 1012.5
20260504213018 8 261 8.0 16.1 0.00 0.23 0.20 80 1012.5
20260504212018 8 258 6.4 14.5 0.00 0.28 0.20 79 1012.5
20260504211018 8 257 6.4 16.1 0.00 0.30 0.20 78 1012.5
20260504210018 8 264 8.0 14.5 0.00 0.33 0.20 77 1012.5
20260504205018 8 252 9.7 22.5 0.00 0.33 0.20 76 1012.6
20260504204017 8 264 11.3 20.9 0.00 0.36 0.20 76 1012.6
20260504203017 8 271 6.4 19.3 0.00 0.36 0.20 78 1012.6
20260504202017 8 280 6.4 19.3 0.00 0.38 0.20 78 1012.7
20260504201017 8 271 4.8 19.3 0.00 0.41 0.20 79 1012.7
20260504200018 8 271 8.0 17.7 0.00 0.41 0.20 79 1012.7
20260504195037 8 276 6.4 14.5 0.00 0.41 0.20 79 1012.7
20260504194018 8 267 6.4 20.9 0.00 0.41 0.20 78 1012.7
20260504193018 8 270 6.4 19.3 0.00 0.41 0.20 78 1012.6
20260504192037 8 276 8.0 17.7 0.00 0.41 0.20 76 1012.6
20260504191017 8 277 6.4 17.7 0.00 0.41 0.20 75 1012.4
20260504190017 9 266 8.0 20.9 0.00 0.41 0.20 74 1012.3
20260504185018 9 265 9.7 19.3 0.00 0.41 0.20 73 1012.3
20260504184017 9 268 11.3 27.4 0.00 0.41 0.20 72 1012.2
20260504183017 10 265 9.7 20.9 0.00 0.41 0.20 71 1012.2
20260504182017 10 263 11.3 20.9 0.00 0.41 0.20 70 1012.2
20260504181017 10 264 11.3 24.1 0.00 0.41 0.20 71 1012.1
20260504180017 10 256 12.9 24.1 0.00 0.41 0.20 70 1012.1
20260504175017 10 260 12.9 27.4 0.00 0.41 0.20 69 1012.2